User: anonymous   Login
Location: Unspecified
(0.0000°N, 0.0000°E)
Time: 23:16:18
(UTC+00:00)
Language:

CP3 - Orbit

View from above orbital plane
View from above orbital plane
View from above satellite
View from above satellite

Ground track
Ground track

The orbit data is extracted from the following two-line orbital elements,

1 31129U 07012N   18109.44177752 +.00000165 +00000-0 +45435-4 0  9999
2 31129 098.1183 055.5384 0094756 325.4084 034.0973 14.56655278584052
Epoch (UTC): 19 April 2018 10:36:09
Eccentricity: 0.0094756
inclination: 98.1183°
perigee height: 637 km
apogee height: 771 km
right ascension of ascending node: 55.5384°
argument of perigee: 325.4084°
revolutions per day: 14.56655278
mean anomaly at epoch: 34.0973°
orbit number at epoch: 58405

The dashed part of the orbit path shows where the satellite is in the earth's shadow,  

DLR